RADUGA 12 [-]

Last updated on Tue Jun 27 2023 00:03:02 GMT+0000 (Coordinated Universal Time)

1 13974U 83028A 23176.95644571 -.00000181 00000+0 00000+0 0 9994 2 13974 10.4427 314.8729 0003562 128.1551 260.0511 1.00275685158471

Satellite not in orbit

RADUGA 12 [-]